sat.trackr.live / text

‹ back to catalog

STARLINK-33804

NORAD 63511 · 2025-071U

PAYLOAD ACTIVE UNKNOWN

§ Identity

Operator
Country
US
Launch date
2025-04-07
Launch site
AFWTR
Launch vehicle
Mass (kg)
RCS (m²)

Purposes: comms

External: N2YO · Heavens-Above · Gunter

§ Orbital elements

Epoch: 2026-09-20T10:33:20.085984Z

Period
94.01 min
Inclination
53.1603°
Eccentricity
0.0001138
Mean motion
15.31711851 rev/d
Perigee alt
469.9 km
Apogee alt
471.5 km
Semi-major
6,848.8 km
B*
6.7796e-4
RAAN
314.1168°
Arg perigee
102.0305°
Mean anomaly
258.0824°
Rev number
8,223

§ Raw data

STARLINK-338041 63511U 25071U   26263.43981581  .00020739  00000+0  67796-3 0  99972 63511  53.1603 314.1168 0001138 102.0305 258.0824 15.31711851 82231

JSON: /api/v1/satellites/63511 · /tle

For live sub-satellite position, see the globe view (requires WebGL).

§ Visibility from observer

Set your observer location to see the next 7 days of passes ≥ 10°. The values pass through the URL so the page stays shareable.

No JS? Fill the form by hand. The geolocation button needs JavaScript.